Regional Weather Roundup
Issued by NWS Goodland, KS

Home | Current Version | Previous Version | Graphics & Text | Print | Product List | Glossary On
Versions: 1 2 3 4 5 6 7 8 9 10 11 12 13 14 15 16 17 18 19 20 21 22 23 24 25 26 27 28 29 30 31 32 33 34 35 36 37 38 39 40 41 42 43 44 45 46 47 48 49 50
000
ASUS43 KGLD 292208
RWRGLD

GOODLAND FORECAST AREA HOURLY WEATHER ROUNDUP
NATIONAL WEATHER SERVICE GOODLAND KS
400 PM MDT WED OCT 29 2014

...OFFICIAL OBSERVATIONS...

CITY           SKY/WX    TMP DP  RH WIND       PRES   REMARKS
GOODLAND KS    SUNNY     72  17  12 VRB3      30.04F
HILL CITY KS   SUNNY     73  39  29 S12       30.02F
IMPERIAL NEB   SUNNY     72  19  13 W8        30.00S
MCCOOK NEB     SUNNY     73  26  17 S9        30.00F
AKRON CO       SUNNY     70  15  12 W12       30.06S
BURLINGTON CO  SUNNY     71  18  13 S8        30.06F
LIMON CO       SUNNY     68  12  11 VRB5      30.09F
$$

...UNOFFICIAL OBSERVATIONS...

CITY           SKY/WX    TMP DP  RH WIND       PRES   REMARKS
COLBY KS       SUNNY     72  37  28 S6        30.03F
NORTON KS      SUNNY     73  21  14 S13       30.00S
SHARON SPRINGS   N/A     75  29  18 CALM        N/A
TRIBUNE KS     SUNNY     72  39  30 S9        30.08S
TRENTON NEB      N/A     75  32  20 W5          N/A
$$



USA.gov is the U.S. government's official web portal to all federal, state and local government web resources and services.